![]() |
EMODnet Physics ERDDAP
Easier access to scientific data |
log in|
Brought to you by EMODnet Physics |
| Dataset Title: | NDBC - Collection of dew point temperature (DEWT) TimeSeries - IN SITU MultiPointTimeSeriesObservation
|
| Institution: | NDBC (Dataset ID: TS_DEWT_NDBC) |
| Information: | Summary
| License
| FGDC
| ISO 19115
| Metadata
| Background
| Subset
| Data Access Form
| Make a graph
|
| Name | Last modified | Size | Description | |
|---|---|---|---|---|
| Parent Directory | - | - | ||
| 46013_TS_DEWT_011982.nc | 16-Nov-2024 23:45 | 449130 | ||
| 46013_TS_DEWT_011983.nc | 17-Nov-2024 00:37 | 449016 | ||
| 46013_TS_DEWT_011984.nc | 17-Nov-2024 01:22 | 449078 | ||
| 46013_TS_DEWT_011985.nc | 17-Nov-2024 02:08 | 449387 | ||
| 46013_TS_DEWT_011986.nc | 17-Nov-2024 02:56 | 448651 | ||
| 46013_TS_DEWT_011987.nc | 17-Nov-2024 03:14 | 451270 | ||
| 46013_TS_DEWT_011989.nc | 17-Nov-2024 04:44 | 449516 | ||
| 46013_TS_DEWT_011990.nc | 17-Nov-2024 05:42 | 451345 | ||
| 46013_TS_DEWT_011991.nc | 17-Nov-2024 06:41 | 449872 | ||
| 46013_TS_DEWT_011992.nc | 17-Nov-2024 07:33 | 451353 | ||
| 46013_TS_DEWT_011993.nc | 17-Nov-2024 08:24 | 450062 | ||
| 46013_TS_DEWT_011994.nc | 17-Nov-2024 09:24 | 449926 | ||
| 46013_TS_DEWT_011995.nc | 17-Nov-2024 10:26 | 450300 | ||
| 46013_TS_DEWT_011996.nc | 17-Nov-2024 11:14 | 450008 | ||
| 46013_TS_DEWT_011997.nc | 17-Nov-2024 12:00 | 450015 | ||
| 46013_TS_DEWT_011999.nc | 17-Nov-2024 13:08 | 444183 | ||
| 46013_TS_DEWT_012000.nc | 17-Nov-2024 14:13 | 450265 | ||
| 46013_TS_DEWT_012001.nc | 17-Nov-2024 15:19 | 448948 | ||
| 46013_TS_DEWT_012003.nc | 17-Nov-2024 17:12 | 449276 | ||
| 46013_TS_DEWT_012004.nc | 17-Nov-2024 17:59 | 450338 | ||
| 46013_TS_DEWT_012005.nc | 17-Nov-2024 18:51 | 450653 | ||
| 46013_TS_DEWT_012006.nc | 17-Nov-2024 19:25 | 450415 | ||
| 46013_TS_DEWT_012007.nc | 17-Nov-2024 20:17 | 449474 | ||
| 46013_TS_DEWT_012008.nc | 17-Nov-2024 21:03 | 449226 | ||
| 46013_TS_DEWT_012009.nc | 17-Nov-2024 21:53 | 448990 | ||
| 46013_TS_DEWT_012010.nc | 17-Nov-2024 22:43 | 449166 | ||
| 46013_TS_DEWT_012012.nc | 18-Nov-2024 00:08 | 449701 | ||
| 46013_TS_DEWT_012013.nc | 18-Nov-2024 00:50 | 449493 | ||
| 46013_TS_DEWT_012014.nc | 18-Nov-2024 01:29 | 444713 | ||
| 46013_TS_DEWT_012015.nc | 18-Nov-2024 02:17 | 449452 | ||
| 46013_TS_DEWT_012016.nc | 18-Nov-2024 02:57 | 450261 | ||
| 46013_TS_DEWT_012017.nc | 18-Nov-2024 03:32 | 450029 | ||
| 46013_TS_DEWT_012018.nc | 18-Nov-2024 04:19 | 451788 | ||
| 46013_TS_DEWT_012019.nc | 18-Nov-2024 05:12 | 450892 | ||
| 46013_TS_DEWT_012020.nc | 18-Nov-2024 06:11 | 450908 | ||
| 46013_TS_DEWT_012021.nc | 18-Nov-2024 07:09 | 450147 | ||
| 46013_TS_DEWT_012023.nc | 18-Nov-2024 07:56 | 450864 | ||
| 46013_TS_DEWT_012025.nc | 07-Feb-2025 12:57 | 440677 | ||
| 46013_TS_DEWT_012026.nc | 02-Feb-2026 14:05 | 449898 | ||
| 46013_TS_DEWT_021982.nc | 16-Nov-2024 23:50 | 1264830 | ||
| 46013_TS_DEWT_021983.nc | 17-Nov-2024 00:41 | 5054732 | ||
| 46013_TS_DEWT_021984.nc | 17-Nov-2024 01:27 | 3069294 | ||
| 46013_TS_DEWT_021985.nc | 17-Nov-2024 02:13 | 1024126 | ||
| 46013_TS_DEWT_021987.nc | 17-Nov-2024 03:18 | 3347376 | ||
| 46013_TS_DEWT_021989.nc | 17-Nov-2024 04:48 | 4778443 | ||
| 46013_TS_DEWT_021990.nc | 17-Nov-2024 05:48 | 1267135 | ||
| 46013_TS_DEWT_021991.nc | 17-Nov-2024 06:46 | 3868679 | ||
| 46013_TS_DEWT_021992.nc | 17-Nov-2024 07:38 | 3322704 | ||
| 46013_TS_DEWT_021993.nc | 17-Nov-2024 08:30 | 1034031 | ||
| 46013_TS_DEWT_021994.nc | 17-Nov-2024 09:30 | 4707916 | ||
| 46013_TS_DEWT_021995.nc | 17-Nov-2024 10:31 | 1115298 | ||
| 46013_TS_DEWT_021996.nc | 17-Nov-2024 11:18 | 5447039 | ||
| 46013_TS_DEWT_021997.nc | 17-Nov-2024 12:04 | 1012143 | ||
| 46013_TS_DEWT_021999.nc | 17-Nov-2024 13:14 | 2690342 | ||
| 46013_TS_DEWT_022000.nc | 17-Nov-2024 14:18 | 1260527 | ||
| 46013_TS_DEWT_022001.nc | 17-Nov-2024 15:24 | 1257281 | ||
| 46013_TS_DEWT_022002.nc | 17-Nov-2024 16:23 | 1262448 | ||
| 46013_TS_DEWT_022003.nc | 17-Nov-2024 17:16 | 3398514 | ||
| 46013_TS_DEWT_022004.nc | 17-Nov-2024 18:04 | 1026218 | ||
| 46013_TS_DEWT_022005.nc | 17-Nov-2024 18:53 | 1110604 | ||
| 46013_TS_DEWT_022006.nc | 17-Nov-2024 19:30 | 4703894 | ||
| 46013_TS_DEWT_022007.nc | 17-Nov-2024 20:22 | 1265798 | ||
| 46013_TS_DEWT_022008.nc | 17-Nov-2024 21:07 | 1113215 | ||
| 46013_TS_DEWT_022009.nc | 17-Nov-2024 21:57 | 5534243 | ||
| 46013_TS_DEWT_022010.nc | 17-Nov-2024 22:47 | 1112803 | ||
| 46013_TS_DEWT_022012.nc | 18-Nov-2024 00:11 | 635569 | ||
| 46013_TS_DEWT_022013.nc | 18-Nov-2024 00:52 | 5609385 | ||
| 46013_TS_DEWT_022014.nc | 18-Nov-2024 01:33 | 5265687 | ||
| 46013_TS_DEWT_022015.nc | 18-Nov-2024 02:22 | 1265493 | ||
| 46013_TS_DEWT_022016.nc | 18-Nov-2024 03:00 | 1154311 | ||
| 46013_TS_DEWT_022017.nc | 18-Nov-2024 03:36 | 5413488 | ||
| 46013_TS_DEWT_022018.nc | 18-Nov-2024 04:23 | 5336361 | ||
| 46013_TS_DEWT_022019.nc | 18-Nov-2024 05:17 | 1115673 | ||
| 46013_TS_DEWT_022020.nc | 18-Nov-2024 06:16 | 3242411 | ||
| 46013_TS_DEWT_022023.nc | 18-Nov-2024 08:01 | 1022253 | ||
| 46013_TS_DEWT_022025.nc | 01-Mar-2025 09:16 | 3494685 | ||
| 46013_TS_DEWT_022026.nc | 01-Mar-2026 13:00 | 1031683 | ||
| 46013_TS_DEWT_031982.nc | 16-Nov-2024 23:54 | 4130162 | ||
| 46013_TS_DEWT_031983.nc | 17-Nov-2024 00:45 | 1110981 | ||
| 46013_TS_DEWT_031984.nc | 17-Nov-2024 01:31 | 4714425 | ||
| 46013_TS_DEWT_031985.nc | 17-Nov-2024 02:17 | 1115538 | ||
| 46013_TS_DEWT_031987.nc | 17-Nov-2024 03:22 | 5446435 | ||
| 46013_TS_DEWT_031988.nc | 17-Nov-2024 03:58 | 1108215 | ||
| 46013_TS_DEWT_031989.nc | 17-Nov-2024 04:53 | 2912994 | ||
| 46013_TS_DEWT_031990.nc | 17-Nov-2024 05:52 | 1115957 | ||
| 46013_TS_DEWT_031991.nc | 17-Nov-2024 06:51 | 1114332 | ||
| 46013_TS_DEWT_031992.nc | 17-Nov-2024 07:44 | 1110574 | ||
| 46013_TS_DEWT_031993.nc | 17-Nov-2024 08:35 | 3465809 | ||
| 46013_TS_DEWT_031994.nc | 17-Nov-2024 09:35 | 1025949 | ||
| 46013_TS_DEWT_031995.nc | 17-Nov-2024 10:36 | 1008066 | ||
| 46013_TS_DEWT_031996.nc | 17-Nov-2024 11:22 | 4822731 | ||
| 46013_TS_DEWT_031997.nc | 17-Nov-2024 12:08 | 1116516 | ||
| 46013_TS_DEWT_031998.nc | 17-Nov-2024 12:17 | 1111036 | ||
| 46013_TS_DEWT_031999.nc | 17-Nov-2024 13:19 | 493829 | ||
| 46013_TS_DEWT_032000.nc | 17-Nov-2024 14:24 | 4119558 | ||
| 46013_TS_DEWT_032001.nc | 17-Nov-2024 15:29 | 1112633 | ||
| 46013_TS_DEWT_032002.nc | 17-Nov-2024 16:28 | 1109277 | ||
| 46013_TS_DEWT_032003.nc | 17-Nov-2024 17:20 | 5574640 | ||
| 46013_TS_DEWT_032004.nc | 17-Nov-2024 18:09 | 1030742 | ||
| 46013_TS_DEWT_032005.nc | 17-Nov-2024 18:54 | 1109629 | ||
| 46013_TS_DEWT_032006.nc | 17-Nov-2024 19:34 | 2916665 | ||
| 46013_TS_DEWT_032007.nc | 17-Nov-2024 20:26 | 1111355 | ||
| 46013_TS_DEWT_032008.nc | 17-Nov-2024 21:10 | 4783003 | ||
| 46013_TS_DEWT_032009.nc | 17-Nov-2024 22:01 | 3084289 | ||
| 46013_TS_DEWT_032010.nc | 17-Nov-2024 22:51 | 1026293 | ||
| 46013_TS_DEWT_032012.nc | 18-Nov-2024 00:15 | 3340463 | ||
| 46013_TS_DEWT_032013.nc | 18-Nov-2024 00:56 | 4882531 | ||
| 46013_TS_DEWT_032014.nc | 18-Nov-2024 01:36 | 1263906 | ||
| 46013_TS_DEWT_032015.nc | 18-Nov-2024 02:25 | 4199078 | ||
| 46013_TS_DEWT_032016.nc | 18-Nov-2024 03:03 | 3798374 | ||
| 46013_TS_DEWT_032017.nc | 18-Nov-2024 03:41 | 1112873 | ||
| 46013_TS_DEWT_032018.nc | 18-Nov-2024 04:27 | 4717203 | ||
| 46013_TS_DEWT_032019.nc | 18-Nov-2024 05:21 | 1115260 | ||
| 46013_TS_DEWT_032020.nc | 18-Nov-2024 06:21 | 5370589 | ||
| 46013_TS_DEWT_032023.nc | 18-Nov-2024 08:06 | 1108772 | ||
| 46013_TS_DEWT_032025.nc | 02-Apr-2025 07:26 | 2683746 | ||
| 46013_TS_DEWT_032026.nc | 24-Mar-2026 13:39 | 1259841 | ||
| 46013_TS_DEWT_041981.nc | 16-Nov-2024 23:16 | 1256953 | ||
| 46013_TS_DEWT_041982.nc | 16-Nov-2024 23:58 | 1258187 | ||
| 46013_TS_DEWT_041983.nc | 17-Nov-2024 00:48 | 3461340 | ||
| 46013_TS_DEWT_041984.nc | 17-Nov-2024 01:35 | 1026653 | ||
| 46013_TS_DEWT_041985.nc | 17-Nov-2024 02:21 | 1108108 | ||
| 46013_TS_DEWT_041987.nc | 17-Nov-2024 03:26 | 4828723 | ||
| 46013_TS_DEWT_041988.nc | 17-Nov-2024 04:02 | 1117742 | ||
| 46013_TS_DEWT_041989.nc | 17-Nov-2024 04:58 | 1112660 | ||
| 46013_TS_DEWT_041990.nc | 17-Nov-2024 05:57 | 5476877 | ||
| 46013_TS_DEWT_041991.nc | 17-Nov-2024 06:55 | 1111729 | ||
| 46013_TS_DEWT_041993.nc | 17-Nov-2024 08:41 | 1032486 | ||
| 46013_TS_DEWT_041994.nc | 17-Nov-2024 09:40 | 5575796 | ||
| 46013_TS_DEWT_041995.nc | 17-Nov-2024 10:41 | 5270254 | ||
| 46013_TS_DEWT_041996.nc | 17-Nov-2024 11:26 | 1261906 | ||
| 46013_TS_DEWT_041997.nc | 17-Nov-2024 12:12 | 1111638 | ||
| 46013_TS_DEWT_041998.nc | 17-Nov-2024 12:24 | 5418136 | ||
| 46013_TS_DEWT_041999.nc | 17-Nov-2024 13:24 | 4871659 | ||
| 46013_TS_DEWT_042000.nc | 17-Nov-2024 14:29 | 1626776 | ||
| 46013_TS_DEWT_042001.nc | 17-Nov-2024 15:34 | 1626269 | ||
| 46013_TS_DEWT_042002.nc | 17-Nov-2024 16:33 | 1627572 | ||
| 46013_TS_DEWT_042003.nc | 17-Nov-2024 17:24 | 1477844 | ||
| 46013_TS_DEWT_042004.nc | 17-Nov-2024 18:13 | 1468441 | ||
| 46013_TS_DEWT_042005.nc | 17-Nov-2024 18:57 | 1477582 | ||
| 46013_TS_DEWT_042006.nc | 17-Nov-2024 19:38 | 1473307 | ||
| 46013_TS_DEWT_042007.nc | 17-Nov-2024 20:29 | 1627544 | ||
| 46013_TS_DEWT_042008.nc | 17-Nov-2024 21:14 | 1627568 | ||
| 46013_TS_DEWT_042009.nc | 17-Nov-2024 22:05 | 1627809 | ||
| 46013_TS_DEWT_042010.nc | 17-Nov-2024 22:55 | 1154025 | ||
| 46013_TS_DEWT_042012.nc | 18-Nov-2024 00:19 | 1469513 | ||
| 46013_TS_DEWT_042013.nc | 18-Nov-2024 00:59 | 1463315 | ||
| 46013_TS_DEWT_042014.nc | 18-Nov-2024 01:40 | 1474253 | ||
| 46013_TS_DEWT_042015.nc | 18-Nov-2024 02:28 | 1466646 | ||
| 46013_TS_DEWT_042016.nc | 18-Nov-2024 03:06 | 1162300 | ||
| 46013_TS_DEWT_042017.nc | 18-Nov-2024 03:46 | 1468890 | ||
| 46013_TS_DEWT_042018.nc | 18-Nov-2024 04:31 | 1466484 | ||
| 46013_TS_DEWT_042019.nc | 18-Nov-2024 05:26 | 1470107 | ||
| 46013_TS_DEWT_042020.nc | 18-Nov-2024 06:26 | 1470420 | ||
| 46013_TS_DEWT_042022.nc | 18-Nov-2024 07:13 | 1470299 | ||
| 46013_TS_DEWT_042023.nc | 18-Nov-2024 08:10 | 420895 | ||
| 46013_TS_DEWT_042025.nc | 01-May-2025 04:43 | 1476323 | ||
| 46013_TS_DEWT_051981.nc | 16-Nov-2024 23:19 | 1625642 | ||
| 46013_TS_DEWT_051982.nc | 17-Nov-2024 00:02 | 1626006 | ||
| 46013_TS_DEWT_051983.nc | 17-Nov-2024 00:52 | 1479065 | ||
| 46013_TS_DEWT_051984.nc | 17-Nov-2024 01:39 | 1164593 | ||
| 46013_TS_DEWT_051985.nc | 17-Nov-2024 02:25 | 1477558 | ||
| 46013_TS_DEWT_051987.nc | 17-Nov-2024 03:31 | 1469279 | ||
| 46013_TS_DEWT_051988.nc | 17-Nov-2024 04:06 | 1160009 | ||
| 46013_TS_DEWT_051989.nc | 17-Nov-2024 05:02 | 1627523 | ||
| 46013_TS_DEWT_051990.nc | 17-Nov-2024 06:02 | 1627791 | ||
| 46013_TS_DEWT_051991.nc | 17-Nov-2024 06:58 | 1476702 | ||
| 46013_TS_DEWT_051993.nc | 17-Nov-2024 08:46 | 1467629 | ||
| 46013_TS_DEWT_051994.nc | 17-Nov-2024 09:44 | 1476703 | ||
| 46013_TS_DEWT_051995.nc | 17-Nov-2024 10:45 | 1476876 | ||
| 46013_TS_DEWT_051996.nc | 17-Nov-2024 11:29 | 1474985 | ||
| 46013_TS_DEWT_051998.nc | 17-Nov-2024 12:28 | 1466233 | ||
| 46013_TS_DEWT_051999.nc | 17-Nov-2024 13:29 | 1472574 | ||
| 46013_TS_DEWT_052000.nc | 17-Nov-2024 14:35 | 1477970 | ||
| 46013_TS_DEWT_052001.nc | 17-Nov-2024 15:39 | 1477091 | ||
| 46013_TS_DEWT_052002.nc | 17-Nov-2024 16:38 | 1477964 | ||
| 46013_TS_DEWT_052003.nc | 17-Nov-2024 17:28 | 1477178 | ||
| 46013_TS_DEWT_052004.nc | 17-Nov-2024 18:18 | 1478263 | ||
| 46013_TS_DEWT_052005.nc | 17-Nov-2024 19:00 | 1469548 | ||
| 46013_TS_DEWT_052006.nc | 17-Nov-2024 19:42 | 1627438 | ||
| 46013_TS_DEWT_052007.nc | 17-Nov-2024 20:33 | 1627597 | ||
| 46013_TS_DEWT_052008.nc | 17-Nov-2024 21:18 | 1625623 | ||
| 46013_TS_DEWT_052009.nc | 17-Nov-2024 22:09 | 1473158 | ||
| 46013_TS_DEWT_052010.nc | 17-Nov-2024 22:59 | 1472235 | ||
| 46013_TS_DEWT_052011.nc | 17-Nov-2024 23:31 | 1627653 | ||
| 46013_TS_DEWT_052012.nc | 18-Nov-2024 00:24 | 1478273 | ||
| 46013_TS_DEWT_052013.nc | 18-Nov-2024 01:02 | 1627649 | ||
| 46013_TS_DEWT_052014.nc | 18-Nov-2024 01:45 | 1627758 | ||
| 46013_TS_DEWT_052015.nc | 18-Nov-2024 02:32 | 1474094 | ||
| 46013_TS_DEWT_052016.nc | 18-Nov-2024 03:09 | 1474210 | ||
| 46013_TS_DEWT_052017.nc | 18-Nov-2024 03:49 | 1476742 | ||
| 46013_TS_DEWT_052018.nc | 18-Nov-2024 04:36 | 1473272 | ||
| 46013_TS_DEWT_052019.nc | 18-Nov-2024 05:31 | 1475405 | ||
| 46013_TS_DEWT_052020.nc | 18-Nov-2024 06:31 | 1464631 | ||
| 46013_TS_DEWT_052022.nc | 18-Nov-2024 07:18 | 1471744 | ||
| 46013_TS_DEWT_052023.nc | 18-Nov-2024 08:14 | 1477877 | ||
| 46013_TS_DEWT_052025.nc | 01-Jun-2025 04:31 | 1476872 | ||
| 46013_TS_DEWT_061981.nc | 16-Nov-2024 23:21 | 1477058 | ||
| 46013_TS_DEWT_061982.nc | 17-Nov-2024 00:06 | 1476894 | ||
| 46013_TS_DEWT_061983.nc | 17-Nov-2024 00:55 | 1626611 | ||
| 46013_TS_DEWT_061984.nc | 17-Nov-2024 01:43 | 1626738 | ||
| 46013_TS_DEWT_061985.nc | 17-Nov-2024 02:29 | 1625949 | ||
| 46013_TS_DEWT_061987.nc | 17-Nov-2024 03:34 | 1627113 | ||
| 46013_TS_DEWT_061988.nc | 17-Nov-2024 04:12 | 1478527 | ||
| 46013_TS_DEWT_061989.nc | 17-Nov-2024 05:07 | 1474836 | ||
| 46013_TS_DEWT_061990.nc | 17-Nov-2024 06:06 | 1475814 | ||
| 46013_TS_DEWT_061991.nc | 17-Nov-2024 07:02 | 1469599 | ||
| 46013_TS_DEWT_061992.nc | 17-Nov-2024 07:49 | 1627455 | ||
| 46013_TS_DEWT_061993.nc | 17-Nov-2024 08:50 | 1627644 | ||
| 46013_TS_DEWT_061994.nc | 17-Nov-2024 09:50 | 1627799 | ||
| 46013_TS_DEWT_061995.nc | 17-Nov-2024 10:50 | 1626654 | ||
| 46013_TS_DEWT_061996.nc | 17-Nov-2024 11:33 | 1626295 | ||
| 46013_TS_DEWT_061998.nc | 17-Nov-2024 12:33 | 1478053 | ||
| 46013_TS_DEWT_061999.nc | 17-Nov-2024 13:35 | 1626351 | ||
| 46013_TS_DEWT_062000.nc | 17-Nov-2024 14:41 | 1626229 | ||
| 46013_TS_DEWT_062001.nc | 17-Nov-2024 15:45 | 1470039 | ||
| 46013_TS_DEWT_062002.nc | 17-Nov-2024 16:43 | 1475060 | ||
| 46013_TS_DEWT_062003.nc | 17-Nov-2024 17:32 | 1625878 | ||
| 46013_TS_DEWT_062004.nc | 17-Nov-2024 18:23 | 1627547 | ||
| 46013_TS_DEWT_062005.nc | 17-Nov-2024 19:03 | 1627760 | ||
| 46013_TS_DEWT_062006.nc | 17-Nov-2024 19:47 | 1627437 | ||
| 46013_TS_DEWT_062007.nc | 17-Nov-2024 20:38 | 1476791 | ||
| 46013_TS_DEWT_062008.nc | 17-Nov-2024 21:22 | 1466876 | ||
| 46013_TS_DEWT_062009.nc | 17-Nov-2024 22:13 | 1477050 | ||
| 46013_TS_DEWT_062010.nc | 17-Nov-2024 23:03 | 1472965 | ||
| 46013_TS_DEWT_062011.nc | 17-Nov-2024 23:36 | 1476223 | ||
| 46013_TS_DEWT_062012.nc | 18-Nov-2024 00:29 | 1471598 | ||
| 46013_TS_DEWT_062013.nc | 18-Nov-2024 01:05 | 1470774 | ||
| 46013_TS_DEWT_062014.nc | 18-Nov-2024 01:49 | 1477206 | ||
| 46013_TS_DEWT_062015.nc | 18-Nov-2024 02:36 | 1477376 | ||
| 46013_TS_DEWT_062016.nc | 18-Nov-2024 03:11 | 1477261 | ||
| 46013_TS_DEWT_062017.nc | 18-Nov-2024 03:51 | 1477603 | ||
| 46013_TS_DEWT_062018.nc | 18-Nov-2024 04:42 | 1478963 | ||
| 46013_TS_DEWT_062019.nc | 18-Nov-2024 05:37 | 1474185 | ||
| 46013_TS_DEWT_062020.nc | 18-Nov-2024 06:36 | 1626677 | ||
| 46013_TS_DEWT_062022.nc | 18-Nov-2024 07:23 | 1478146 | ||
| 46013_TS_DEWT_062023.nc | 18-Nov-2024 08:19 | 1472098 | ||
| 46013_TS_DEWT_062025.nc | 25-Jun-2025 04:07 | 1475108 | ||
| 46013_TS_DEWT_071981.nc | 16-Nov-2024 23:22 | 1475924 | ||
| 46013_TS_DEWT_071982.nc | 17-Nov-2024 00:11 | 1627000 | ||
| 46013_TS_DEWT_071983.nc | 17-Nov-2024 00:59 | 1627261 | ||
| 46013_TS_DEWT_071984.nc | 17-Nov-2024 01:47 | 1626757 | ||
| 46013_TS_DEWT_071985.nc | 17-Nov-2024 02:34 | 1627667 | ||
| 46013_TS_DEWT_071987.nc | 17-Nov-2024 03:38 | 1476269 | ||
| 46013_TS_DEWT_071988.nc | 17-Nov-2024 04:17 | 1476554 | ||
| 46013_TS_DEWT_071989.nc | 17-Nov-2024 05:12 | 1470953 | ||
| 46013_TS_DEWT_071990.nc | 17-Nov-2024 06:11 | 1473386 | ||
| 46013_TS_DEWT_071991.nc | 17-Nov-2024 07:06 | 1462858 | ||
| 46013_TS_DEWT_071992.nc | 17-Nov-2024 07:54 | 1471906 | ||
| 46013_TS_DEWT_071993.nc | 17-Nov-2024 08:55 | 1472240 | ||
| 46013_TS_DEWT_071994.nc | 17-Nov-2024 09:56 | 1472604 | ||
| 46013_TS_DEWT_071995.nc | 17-Nov-2024 10:54 | 1477174 | ||
| 46013_TS_DEWT_071996.nc | 17-Nov-2024 11:36 | 1477658 | ||
| 46013_TS_DEWT_071998.nc | 17-Nov-2024 12:37 | 1477046 | ||
| 46013_TS_DEWT_071999.nc | 17-Nov-2024 13:40 | 1626532 | ||
| 46013_TS_DEWT_072000.nc | 17-Nov-2024 14:48 | 1625602 | ||
| 46013_TS_DEWT_072001.nc | 17-Nov-2024 15:50 | 1473858 | ||
| 46013_TS_DEWT_072002.nc | 17-Nov-2024 16:49 | 1478287 | ||
| 46013_TS_DEWT_072003.nc | 17-Nov-2024 17:37 | 1475768 | ||
| 46013_TS_DEWT_072004.nc | 17-Nov-2024 18:28 | 1472583 | ||
| 46013_TS_DEWT_072005.nc | 17-Nov-2024 19:05 | 1473769 | ||
| 46013_TS_DEWT_072006.nc | 17-Nov-2024 19:52 | 1627543 | ||
| 46013_TS_DEWT_072007.nc | 17-Nov-2024 20:41 | 1626763 | ||
| 46013_TS_DEWT_072008.nc | 17-Nov-2024 21:27 | 1475743 | ||
| 46013_TS_DEWT_072009.nc | 17-Nov-2024 22:16 | 1153876 | ||
| 46013_TS_DEWT_072010.nc | 17-Nov-2024 23:06 | 443113 | ||
| 46013_TS_DEWT_072011.nc | 17-Nov-2024 23:41 | 450605 | ||
| 46013_TS_DEWT_072012.nc | 18-Nov-2024 00:33 | 450183 | ||
| 46013_TS_DEWT_072013.nc | 18-Nov-2024 01:08 | 451052 | ||
| 46013_TS_DEWT_072014.nc | 18-Nov-2024 01:54 | 450400 | ||
| 46013_TS_DEWT_072015.nc | 18-Nov-2024 02:40 | 628782 | ||
| 46013_TS_DEWT_072016.nc | 18-Nov-2024 03:13 | 630590 | ||
| 46013_TS_DEWT_072017.nc | 18-Nov-2024 03:54 | 628672 | ||
| 46013_TS_DEWT_072018.nc | 18-Nov-2024 04:46 | 628874 | ||
| 46013_TS_DEWT_072019.nc | 18-Nov-2024 05:42 | 629684 | ||
| 46013_TS_DEWT_072020.nc | 18-Nov-2024 06:41 | 630737 | ||
| 46013_TS_DEWT_072022.nc | 18-Nov-2024 07:28 | 626912 | ||
| 46013_TS_DEWT_072023.nc | 18-Nov-2024 08:23 | 629408 | ||
| 46013_TS_DEWT_081981.nc | 16-Nov-2024 23:25 | 628107 | ||
| 46013_TS_DEWT_081982.nc | 17-Nov-2024 00:16 | 628454 | ||
| 46013_TS_DEWT_081983.nc | 17-Nov-2024 01:03 | 480856 | ||
| 46013_TS_DEWT_081984.nc | 17-Nov-2024 01:50 | 629832 | ||
| 46013_TS_DEWT_081985.nc | 17-Nov-2024 02:38 | 628229 | ||
| 46013_TS_DEWT_081987.nc | 17-Nov-2024 03:41 | 448265 | ||
| 46013_TS_DEWT_081988.nc | 17-Nov-2024 04:22 | 446908 | ||
| 46013_TS_DEWT_081989.nc | 17-Nov-2024 05:17 | 447140 | ||
| 46013_TS_DEWT_081990.nc | 17-Nov-2024 06:16 | 447575 | ||
| 46013_TS_DEWT_081991.nc | 17-Nov-2024 07:10 | 447968 | ||
| 46013_TS_DEWT_081992.nc | 17-Nov-2024 07:58 | 475480 | ||
| 46013_TS_DEWT_081993.nc | 17-Nov-2024 08:59 | 476482 | ||
| 46013_TS_DEWT_081994.nc | 17-Nov-2024 10:01 | 476646 | ||
| 46013_TS_DEWT_081995.nc | 17-Nov-2024 10:58 | 477232 | ||
| 46013_TS_DEWT_081996.nc | 17-Nov-2024 11:40 | 476351 | ||
| 46013_TS_DEWT_081998.nc | 17-Nov-2024 12:42 | 455442 | ||
| 46013_TS_DEWT_081999.nc | 17-Nov-2024 13:45 | 476884 | ||
| 46013_TS_DEWT_082000.nc | 17-Nov-2024 14:53 | 475387 | ||
| 46013_TS_DEWT_082001.nc | 17-Nov-2024 15:56 | 476262 | ||
| 46013_TS_DEWT_082002.nc | 17-Nov-2024 16:54 | 478051 | ||
| 46013_TS_DEWT_082003.nc | 17-Nov-2024 17:41 | 474380 | ||
| 46013_TS_DEWT_082004.nc | 17-Nov-2024 18:33 | 474810 | ||
| 46013_TS_DEWT_082005.nc | 17-Nov-2024 19:08 | 476714 | ||
| 46013_TS_DEWT_082006.nc | 17-Nov-2024 19:56 | 451176 | ||
| 46013_TS_DEWT_082007.nc | 17-Nov-2024 20:45 | 450964 | ||
| 46013_TS_DEWT_082008.nc | 17-Nov-2024 21:31 | 451606 | ||
| 46013_TS_DEWT_082009.nc | 17-Nov-2024 22:21 | 451672 | ||
| 46013_TS_DEWT_082010.nc | 17-Nov-2024 23:10 | 451105 | ||
| 46013_TS_DEWT_082011.nc | 17-Nov-2024 23:45 | 630172 | ||
| 46013_TS_DEWT_082012.nc | 18-Nov-2024 00:37 | 629016 | ||
| 46013_TS_DEWT_082013.nc | 18-Nov-2024 01:12 | 629833 | ||
| 46013_TS_DEWT_082014.nc | 18-Nov-2024 01:59 | 628800 | ||
| 46013_TS_DEWT_082015.nc | 18-Nov-2024 02:43 | 630727 | ||
| 46013_TS_DEWT_082016.nc | 18-Nov-2024 03:17 | 628604 | ||
| 46013_TS_DEWT_082017.nc | 18-Nov-2024 03:58 | 630362 | ||
| 46013_TS_DEWT_082018.nc | 18-Nov-2024 04:50 | 628797 | ||
| 46013_TS_DEWT_082019.nc | 18-Nov-2024 05:47 | 628351 | ||
| 46013_TS_DEWT_082020.nc | 18-Nov-2024 06:45 | 629098 | ||
| 46013_TS_DEWT_082022.nc | 18-Nov-2024 07:33 | 627327 | ||
| 46013_TS_DEWT_082023.nc | 18-Nov-2024 08:28 | 628177 | ||
| 46013_TS_DEWT_091981.nc | 16-Nov-2024 23:29 | 450230 | ||
| 46013_TS_DEWT_091982.nc | 17-Nov-2024 00:20 | 449400 | ||
| 46013_TS_DEWT_091983.nc | 17-Nov-2024 01:06 | 449537 | ||
| 46013_TS_DEWT_091984.nc | 17-Nov-2024 01:54 | 450136 | ||
| 46013_TS_DEWT_091985.nc | 17-Nov-2024 02:41 | 449253 | ||
| 46013_TS_DEWT_091986.nc | 17-Nov-2024 03:00 | 482098 | ||
| 46013_TS_DEWT_091987.nc | 17-Nov-2024 03:46 | 479457 | ||
| 46013_TS_DEWT_091988.nc | 17-Nov-2024 04:26 | 479776 | ||
| 46013_TS_DEWT_091989.nc | 17-Nov-2024 05:23 | 481342 | ||
| 46013_TS_DEWT_091990.nc | 17-Nov-2024 06:23 | 480039 | ||
| 46013_TS_DEWT_091991.nc | 17-Nov-2024 07:14 | 444382 | ||
| 46013_TS_DEWT_091992.nc | 17-Nov-2024 08:03 | 480368 | ||
| 46013_TS_DEWT_091993.nc | 17-Nov-2024 09:02 | 481648 | ||
| 46013_TS_DEWT_091994.nc | 17-Nov-2024 10:06 | 479786 | ||
| 46013_TS_DEWT_091995.nc | 17-Nov-2024 11:01 | 480063 | ||
| 46013_TS_DEWT_091996.nc | 17-Nov-2024 11:44 | 480634 | ||
| 46013_TS_DEWT_091998.nc | 17-Nov-2024 12:48 | 479684 | ||
| 46013_TS_DEWT_091999.nc | 17-Nov-2024 13:50 | 431730 | ||
| 46013_TS_DEWT_092000.nc | 17-Nov-2024 14:58 | 450662 | ||
| 46013_TS_DEWT_092001.nc | 17-Nov-2024 16:01 | 451460 | ||
| 46013_TS_DEWT_092002.nc | 17-Nov-2024 16:58 | 450861 | ||
| 46013_TS_DEWT_092003.nc | 17-Nov-2024 17:46 | 451163 | ||
| 46013_TS_DEWT_092004.nc | 17-Nov-2024 18:38 | 450346 | ||
| 46013_TS_DEWT_092005.nc | 17-Nov-2024 19:11 | 628759 | ||
| 46013_TS_DEWT_092006.nc | 17-Nov-2024 20:00 | 628771 | ||
| 46013_TS_DEWT_092007.nc | 17-Nov-2024 20:49 | 629427 | ||
| 46013_TS_DEWT_092008.nc | 17-Nov-2024 21:36 | 629284 | ||
| 46013_TS_DEWT_092009.nc | 17-Nov-2024 22:26 | 630846 | ||
| 46013_TS_DEWT_092010.nc | 17-Nov-2024 23:14 | 630504 | ||
| 46013_TS_DEWT_092011.nc | 17-Nov-2024 23:50 | 630645 | ||
| 46013_TS_DEWT_092012.nc | 18-Nov-2024 00:41 | 630889 | ||
| 46013_TS_DEWT_092013.nc | 18-Nov-2024 01:16 | 629497 | ||
| 46013_TS_DEWT_092014.nc | 18-Nov-2024 02:03 | 628754 | ||
| 46013_TS_DEWT_092015.nc | 18-Nov-2024 02:46 | 629797 | ||
| 46013_TS_DEWT_092016.nc | 18-Nov-2024 03:20 | 628523 | ||
| 46013_TS_DEWT_092017.nc | 18-Nov-2024 04:01 | 450134 | ||
| 46013_TS_DEWT_092018.nc | 18-Nov-2024 04:53 | 449604 | ||
| 46013_TS_DEWT_092019.nc | 18-Nov-2024 05:52 | 449394 | ||
| 46013_TS_DEWT_092020.nc | 18-Nov-2024 06:50 | 449055 | ||
| 46013_TS_DEWT_092022.nc | 18-Nov-2024 07:38 | 449986 | ||
| 46013_TS_DEWT_092023.nc | 18-Nov-2024 08:33 | 480019 | ||
| 46013_TS_DEWT_101981.nc | 16-Nov-2024 23:33 | 479445 | ||
| 46013_TS_DEWT_101982.nc | 17-Nov-2024 00:24 | 481577 | ||
| 46013_TS_DEWT_101983.nc | 17-Nov-2024 01:11 | 480900 | ||
| 46013_TS_DEWT_101984.nc | 17-Nov-2024 01:58 | 482065 | ||
| 46013_TS_DEWT_101985.nc | 17-Nov-2024 02:45 | 479680 | ||
| 46013_TS_DEWT_101986.nc | 17-Nov-2024 03:03 | 480803 | ||
| 46013_TS_DEWT_101987.nc | 17-Nov-2024 03:50 | 473315 | ||
| 46013_TS_DEWT_101988.nc | 17-Nov-2024 04:31 | 480142 | ||
| 46013_TS_DEWT_101989.nc | 17-Nov-2024 05:28 | 479977 | ||
| 46013_TS_DEWT_101990.nc | 17-Nov-2024 06:27 | 479863 | ||
| 46013_TS_DEWT_101991.nc | 17-Nov-2024 07:19 | 481205 | ||
| 46013_TS_DEWT_101992.nc | 17-Nov-2024 08:08 | 451231 | ||
| 46013_TS_DEWT_101993.nc | 17-Nov-2024 09:08 | 450968 | ||
| 46013_TS_DEWT_101994.nc | 17-Nov-2024 10:11 | 449841 | ||
| 46013_TS_DEWT_101995.nc | 17-Nov-2024 11:04 | 449669 | ||
| 46013_TS_DEWT_101996.nc | 17-Nov-2024 11:48 | 450251 | ||
| 46013_TS_DEWT_101998.nc | 17-Nov-2024 12:53 | 627335 | ||
| 46013_TS_DEWT_101999.nc | 17-Nov-2024 13:56 | 628682 | ||
| 46013_TS_DEWT_102000.nc | 17-Nov-2024 15:03 | 629150 | ||
| 46013_TS_DEWT_102001.nc | 17-Nov-2024 16:06 | 628584 | ||
| 46013_TS_DEWT_102002.nc | 17-Nov-2024 17:01 | 626156 | ||
| 46013_TS_DEWT_102004.nc | 17-Nov-2024 18:42 | 626298 | ||
| 46013_TS_DEWT_102005.nc | 17-Nov-2024 19:13 | 627784 | ||
| 46013_TS_DEWT_102006.nc | 17-Nov-2024 20:03 | 624502 | ||
| 46013_TS_DEWT_102007.nc | 17-Nov-2024 20:53 | 627043 | ||
| 46013_TS_DEWT_102008.nc | 17-Nov-2024 21:40 | 628636 | ||
| 46013_TS_DEWT_102009.nc | 17-Nov-2024 22:30 | 626916 | ||
| 46013_TS_DEWT_102010.nc | 17-Nov-2024 23:18 | 626906 | ||
| 46013_TS_DEWT_102011.nc | 17-Nov-2024 23:55 | 450513 | ||
| 46013_TS_DEWT_102012.nc | 18-Nov-2024 00:44 | 450295 | ||
| 46013_TS_DEWT_102013.nc | 18-Nov-2024 01:18 | 450582 | ||
| 46013_TS_DEWT_102014.nc | 18-Nov-2024 02:07 | 449774 | ||
| 46013_TS_DEWT_102015.nc | 18-Nov-2024 02:49 | 450425 | ||
| 46013_TS_DEWT_102016.nc | 18-Nov-2024 03:23 | 628749 | ||
| 46013_TS_DEWT_102017.nc | 18-Nov-2024 04:05 | 628571 | ||
| 46013_TS_DEWT_102018.nc | 18-Nov-2024 04:58 | 628885 | ||
| 46013_TS_DEWT_102019.nc | 18-Nov-2024 05:56 | 628499 | ||
| 46013_TS_DEWT_102020.nc | 18-Nov-2024 06:55 | 629856 | ||
| 46013_TS_DEWT_102022.nc | 18-Nov-2024 07:42 | 626724 | ||
| 46013_TS_DEWT_102023.nc | 18-Nov-2024 08:38 | 627846 | ||
| 46013_TS_DEWT_102024.nc | 12-Jan-2025 20:23 | 626544 | ||
| 46013_TS_DEWT_111981.nc | 16-Nov-2024 23:36 | 630477 | ||
| 46013_TS_DEWT_111982.nc | 17-Nov-2024 00:28 | 627872 | ||
| 46013_TS_DEWT_111983.nc | 17-Nov-2024 01:15 | 627855 | ||
| 46013_TS_DEWT_111984.nc | 17-Nov-2024 02:00 | 446669 | ||
| 46013_TS_DEWT_111985.nc | 17-Nov-2024 02:48 | 449796 | ||
| 46013_TS_DEWT_111986.nc | 17-Nov-2024 03:07 | 449794 | ||
| 46013_TS_DEWT_111987.nc | 17-Nov-2024 03:54 | 449268 | ||
| 46013_TS_DEWT_111988.nc | 17-Nov-2024 04:35 | 449283 | ||
| 46013_TS_DEWT_111989.nc | 17-Nov-2024 05:33 | 449847 | ||
| 46013_TS_DEWT_111990.nc | 17-Nov-2024 06:32 | 476804 | ||
| 46013_TS_DEWT_111991.nc | 17-Nov-2024 07:23 | 481220 | ||
| 46013_TS_DEWT_111992.nc | 17-Nov-2024 08:13 | 479964 | ||
| 46013_TS_DEWT_111993.nc | 17-Nov-2024 09:13 | 478735 | ||
| 46013_TS_DEWT_111994.nc | 17-Nov-2024 10:16 | 479845 | ||
| 46013_TS_DEWT_111995.nc | 17-Nov-2024 11:07 | 480073 | ||
| 46013_TS_DEWT_111996.nc | 17-Nov-2024 11:52 | 481282 | ||
| 46013_TS_DEWT_111998.nc | 17-Nov-2024 12:58 | 480216 | ||
| 46013_TS_DEWT_111999.nc | 17-Nov-2024 14:01 | 479906 | ||
| 46013_TS_DEWT_112000.nc | 17-Nov-2024 15:09 | 480068 | ||
| 46013_TS_DEWT_112001.nc | 17-Nov-2024 16:12 | 479068 | ||
| 46013_TS_DEWT_112002.nc | 17-Nov-2024 17:04 | 451325 | ||
| 46013_TS_DEWT_112003.nc | 17-Nov-2024 17:50 | 450872 | ||
| 46013_TS_DEWT_112004.nc | 17-Nov-2024 18:45 | 450926 | ||
| 46013_TS_DEWT_112005.nc | 17-Nov-2024 19:16 | 450013 | ||
| 46013_TS_DEWT_112006.nc | 17-Nov-2024 20:08 | 449905 | ||
| 46013_TS_DEWT_112007.nc | 17-Nov-2024 20:56 | 451371 | ||
| 46013_TS_DEWT_112008.nc | 17-Nov-2024 21:44 | 612836 | ||
| 46013_TS_DEWT_112009.nc | 17-Nov-2024 22:35 | 629140 | ||
| 46013_TS_DEWT_112010.nc | 17-Nov-2024 23:22 | 630761 | ||
| 46013_TS_DEWT_112011.nc | 17-Nov-2024 23:59 | 629605 | ||
| 46013_TS_DEWT_112012.nc | 18-Nov-2024 00:47 | 630432 | ||
| 46013_TS_DEWT_112013.nc | 18-Nov-2024 01:22 | 628669 | ||
| 46013_TS_DEWT_112014.nc | 18-Nov-2024 02:11 | 628568 | ||
| 46013_TS_DEWT_112015.nc | 18-Nov-2024 02:51 | 628386 | ||
| 46013_TS_DEWT_112016.nc | 18-Nov-2024 03:26 | 629727 | ||
| 46013_TS_DEWT_112017.nc | 18-Nov-2024 04:10 | 628913 | ||
| 46013_TS_DEWT_112018.nc | 18-Nov-2024 05:03 | 629665 | ||
| 46013_TS_DEWT_112019.nc | 18-Nov-2024 06:01 | 627547 | ||
| 46013_TS_DEWT_112020.nc | 18-Nov-2024 07:01 | 449643 | ||
| 46013_TS_DEWT_112022.nc | 18-Nov-2024 07:47 | 450457 | ||
| 46013_TS_DEWT_112023.nc | 18-Nov-2024 08:43 | 448836 | ||
| 46013_TS_DEWT_112024.nc | 17-Jan-2025 14:15 | 448074 | ||
| 46013_TS_DEWT_112025.nc | 18-Jan-2026 13:26 | 450045 | ||
| 46013_TS_DEWT_121981.nc | 16-Nov-2024 23:40 | 450686 | ||
| 46013_TS_DEWT_121982.nc | 17-Nov-2024 00:33 | 481117 | ||
| 46013_TS_DEWT_121983.nc | 17-Nov-2024 01:18 | 480938 | ||
| 46013_TS_DEWT_121984.nc | 17-Nov-2024 02:04 | 481170 | ||
| 46013_TS_DEWT_121985.nc | 17-Nov-2024 02:52 | 480639 | ||
| 46013_TS_DEWT_121986.nc | 17-Nov-2024 03:11 | 482511 | ||
| 46013_TS_DEWT_121988.nc | 17-Nov-2024 04:39 | 479392 | ||
| 46013_TS_DEWT_121989.nc | 17-Nov-2024 05:37 | 482675 | ||
| 46013_TS_DEWT_121990.nc | 17-Nov-2024 06:36 | 480437 | ||
| 46013_TS_DEWT_121991.nc | 17-Nov-2024 07:28 | 481664 | ||
| 46013_TS_DEWT_121992.nc | 17-Nov-2024 08:18 | 480482 | ||
| 46013_TS_DEWT_121993.nc | 17-Nov-2024 09:19 | 479862 | ||
| 46013_TS_DEWT_121994.nc | 17-Nov-2024 10:20 | 479480 | ||
| 46013_TS_DEWT_121995.nc | 17-Nov-2024 11:11 | 436092 | ||
| 46013_TS_DEWT_121996.nc | 17-Nov-2024 11:56 | 451581 | ||
| 46013_TS_DEWT_121998.nc | 17-Nov-2024 13:03 | 450297 | ||
| 46013_TS_DEWT_121999.nc | 17-Nov-2024 14:07 | 451132 | ||
| 46013_TS_DEWT_122000.nc | 17-Nov-2024 15:14 | 450718 | ||
| 46013_TS_DEWT_122001.nc | 17-Nov-2024 16:18 | 451363 | ||
| 46013_TS_DEWT_122002.nc | 17-Nov-2024 17:08 | 629175 | ||
| 46013_TS_DEWT_122003.nc | 17-Nov-2024 17:54 | 628683 | ||
| 46013_TS_DEWT_122004.nc | 17-Nov-2024 18:48 | 629538 | ||
| 46013_TS_DEWT_122005.nc | 17-Nov-2024 19:20 | 628272 | ||
| 46013_TS_DEWT_122006.nc | 17-Nov-2024 20:13 | 478947 | ||
| 46013_TS_DEWT_122007.nc | 17-Nov-2024 21:00 | 630205 | ||
| 46013_TS_DEWT_122008.nc | 17-Nov-2024 21:48 | 628081 | ||
| 46013_TS_DEWT_122009.nc | 17-Nov-2024 22:39 | 628205 | ||
| 46013_TS_DEWT_122010.nc | 17-Nov-2024 23:27 | 628636 | ||
| 46013_TS_DEWT_122011.nc | 18-Nov-2024 00:03 | 628425 | ||
| 46013_TS_DEWT_122012.nc | 18-Nov-2024 00:49 | 628443 | ||
| 46013_TS_DEWT_122013.nc | 18-Nov-2024 01:26 | 627253 | ||
| 46013_TS_DEWT_122014.nc | 18-Nov-2024 02:14 | 450470 | ||
| 46013_TS_DEWT_122015.nc | 18-Nov-2024 02:54 | 451680 | ||
| 46013_TS_DEWT_122016.nc | 18-Nov-2024 03:29 | 449862 | ||
| 46013_TS_DEWT_122017.nc | 18-Nov-2024 04:15 | 451594 | ||
| 46013_TS_DEWT_122018.nc | 18-Nov-2024 05:08 | 450753 | ||
| 46013_TS_DEWT_122019.nc | 18-Nov-2024 06:06 | 439772 | ||
| 46013_TS_DEWT_122020.nc | 18-Nov-2024 07:05 | 450546 | ||
| 46013_TS_DEWT_122022.nc | 18-Nov-2024 07:52 | 450783 | ||
| 46013_TS_DEWT_122023.nc | 18-Nov-2024 08:48 | 450459 | ||
| 46013_TS_DEWT_122024.nc | 22-Jan-2025 16:11 | 450978 | ||
| 46013_TS_DEWT_122025.nc | 18-Jan-2026 13:27 | 450947 | ||